Regional Weather Roundup
Issued by NWS

Home | Current Version | Previous Version | Text Only | Print | Product List | Glossary On
Versions: 1 2 3 4 5 6 7 8 9 10 11 12 13 14 15 16 17 18 19 20 21 22 23 24 25 26 27 28 29 30 31 32 33 34 35 36 37 38 39 40 41 42 43 44 45 46 47 48 49 50
000
ASCA44 KEWX 042120
RWRMX

LATIN AMERICA AND CARIBBEAN REGIONAL WEATHER ROUNDUP
NATIONAL WEATHER SERVICE AUSTIN/SAN ANTONIO TX
400 PM CDT WED MAY 04 2016

NOTE: "FAIR" INDICATED FEW OR NO CLOUDS BELOW 12,000 FEET WITH NO
SIGNIFICANT WEATHER AND/OR OBSTRUCTIONS TO VISIBILITY.

BAJA CALIFORNIA

CITY           SKY/WX    TMP DP  RH WIND       PRES   REMARKS
LORETO         SUNNY     81  68  65 NE12      29.83F
LA PAZ         MOSUNNY   86  61  42 N9        29.86F
MEXICALI       SUNNY     95  32  11 S6        29.78F HX  90
S.J. DEL CABO  MOSUNNY   84  50  30 SE12      29.88F
TIJUANA        SUNNY     68  50  52 W6        29.96F

NORTHWESTERN MEXICO

CITY           SKY/WX    TMP DP  RH WIND       PRES   REMARKS
CULIACAN       PTSUNNY   95  61  31 SW9       29.84F HX  95
DURANGO        CLOUDY    82  23  11 E13       30.17F
GUAYMAS        SUNNY     86  63  45 SW8       29.80F
HERMOSILLO     SUNNY    100  39  12 CALM      29.87F HX  95
CD. JUAREZ     SUNNY     82  45  26 E12       30.10F
LOS MOCHIS     SUNNY     86  45  23 SW12      29.85F
OBREGON        MOSUNNY   91  41  17 S14       29.82F

NORTHEASTERN MEXICO

CITY           SKY/WX    TMP DP  RH WIND       PRES   REMARKS
CHIHUAHUA      PTSUNNY   82  37  20 E17       30.15F
MATAMOROS      SUNNY     84  52  32 NE10      30.02F
MONCLOVA       SUNNY     86  46  25 NE14      30.02
MONTERREY      MOSUNNY   84  52  32 E8        30.03F
NUEVO LAREDO   SUNNY     88  48  25 CALM      30.01F
PIEDRAS NEGRAS SUNNY     86  52  30 NE7       30.05F
REYNOSA        SUNNY     84  41  21 NE6       30.01F
SALTILLO       MOSUNNY   75  54  46 NE17      30.22F
TORREON        PTSUNNY   86  48  26 NE7       30.08F
CD. VICTORIA   CLOUDY    75  55  50 NW8       30.08F

WESTERN MEXICO

CITY           SKY/WX    TMP DP  RH WIND       PRES   REMARKS
AGUASCALIENTES MOSUNNY   86  16   7 CALM      30.16F
COLIMA         MOSUNNY   88  64  45 W21       29.89F
DEL BAJIO      MOSUNNY   90  28  11 NW5       30.18F
GUADALAJARA    SUNNY     91  21   8 W13       30.07F
MANZANILLO     SUNNY     81  75  83 W9        29.79F
MAZATLAN       PTSUNNY   90  55  31 SW6       29.82F
P. VALLARTA    SUNNY     82  73  74 SW12      29.82F
URUAPAN        CLOUDY    84  57  39 CALM      30.11F
ZACATECAS      MOSUNNY   84  25  11 SW17      30.22F

CENTRAL MEXICO

CITY           SKY/WX    TMP DP  RH WIND       PRES   REMARKS
CUERNAVACA     MOSUNNY   93  39  15 CALM      29.98F
MEXICO CITY    MOSUNNY   82  37  20 NE7       30.22F
MORELIA        MOSUNNY   90  39  17 NW10      30.13F
POZA RICA      DRZL/FOG  72  70  94 N9        30.00F VSB 1
PUEBLA         MOSUNNY   82  50  32 SW16      30.23F
QUERETARO      SUNNY     88  39  18 SW9       30.19F
S. LUIS POTOSI MOSUNNY   81  43  26 E17       30.16F
TAMPICO        CLOUDY    75  61  60 N8        30.04F
TOLUCA         PTSUNNY   86  39  19 N7        30.31F

SOUTHERN MEXICO

CITY           SKY/WX    TMP DP  RH WIND       PRES   REMARKS
ACAPULCO       SUNNY     86  77  74 S5        29.80F HX  97
B. DE HUATULCO CLOUDY    88  79  74 S23       29.88F HAZE    HX 102
OAXACA         CLOUDY    90  50  25 E6        30.04F
P. ESCONDIDO   SUNNY     84  77  79 S9        29.91F HX  94
VERACRUZ       PTSUNNY   82  72  69 N14       29.93F
ZIHUATANEJO    SUNNY     90  72  55 SW9       29.81F HX  96

YUCATAN PENINSULA

CITY           SKY/WX    TMP DP  RH WIND       PRES   REMARKS
CAMPECHE       MOSUNNY   86  75  70 N12G23    29.81F HX  95
CANCUN         PTSUNNY   77  75  94 N3        29.83R
CHETUMAL       MOSUNNY   90  75  62 SE12      29.77F HX 100
CD. DEL CARMEN CLOUDY    88  79  74 NW9       29.85F HAZE    HX 102
COZUMEL        PTSUNNY   84  75  74 S8        29.78F HX  92
MERIDA         CLOUDY    88  72  58 NW13G25   29.83S HX  94
MINATITLAN     CLOUDY    81  68  65 N23G35    29.84F
TAPACHULA      MOSUNNY   90  75  62 SW12      29.75F HX 100
TUX. GUTIERREZ MOSUNNY   90  68  48 NW29      29.86F HX  93
VILLAHERMOSA   CLOUDY    84  77  79 W9        29.88F HX  94

CENTRAL AMERICA

CITY           SKY/WX    TMP DP  RH WIND       PRES   REMARKS
BELIZE CITY    MOSUNNY   93  77  59 E8        29.79F HX 107
MANAGUA        PTCLDY    91  75  59 W12       29.74F HX 102

CARIBBEAN

CITY           SKY/WX    TMP DP  RH WIND       PRES   REMARKS
ARUBA          MOSUNNY   88  75  66 E22       29.77S HX  97
CURACAO        MOSUNNY   86  75  70 E15       29.80S HX  95
KINGSTON       MOSUNNY   86  75  70 SE18      29.83S HX  95
NASSAU         PTSUNNY   77  75  94 CALM      29.81
SAN JUAN       MOSUNNY   88  72  58 E7        29.92R HX  94
SANTO DOMINGO  MOSUNNY   82  73  74 S9        29.89S
ST. CROIX      MOSUNNY   84  73  70 SE9       29.95S HX  91
ST. KITTS      MOSUNNY   82  73  74 E10       29.94S
ST. MAARTEN    MOSUNNY   82  73  74 E9        29.94S
ST. THOMAS     SUNNY     84  75  74 SE12      29.94S HX  92

$$




USA.gov is the U.S. government's official web portal to all federal, state and local government web resources and services.